DW8722 Weather Reports


time (UTC)temp
C
wind
direction
speed
KPH
gust
KPH
rain 1hr
cm
rain 24hr
cm
rain mn
cm
humidity
%
barometer
mb
20260903165239 27 187 12.9 30.6 0.00 0.05 0.05 83 1013.5
20260903163026 26 174 11.3 25.7 0.00 0.05 0.05 86 1013.4
20260903162031 26 121 12.9 30.6 0.00 0.05 0.05 86 1013.4
20260903161047 26 177 12.9 30.6 0.00 0.05 0.05 86 1013.5
20260903160013 26 138 11.3 22.5 0.00 0.05 0.05 86 1013.4
20260903154952 26 142 9.7 20.9 0.00 0.05 0.05 87 1013.4
20260903153948 26 159 12.9 25.7 0.00 0.05 0.05 87 1013.3
20260903153002 26 175 12.9 25.7 0.00 0.05 0.05 87 1013.2
20260903151936 26 114 12.9 27.4 0.00 0.05 0.05 87 1013.2
20260903150954 26 169 12.9 27.4 0.00 0.05 0.05 87 1013.1
20260903145945 26 140 11.3 24.1 0.00 0.05 0.05 88 1013.1
20260903145010 26 150 9.7 24.1 0.00 0.05 0.05 89 1013.0
20260903142856 26 147 9.7 24.1 0.00 0.05 0.05 90 1013.1
20260903141837 25 147 11.3 24.1 0.00 0.05 0.05 90 1013.1
20260903140858 25 157 9.7 20.9 0.00 0.05 0.05 90 1013.3
20260903133620 25 155 4.8 11.3 0.00 0.05 0.05 90 1013.2
20260903132603 24 141 4.8 11.3 0.00 0.05 0.05 90 1013.2
20260903131603 24 119 4.8 12.9 0.00 0.05 0.05 90 1013.2
20260903130601 24 143 4.8 12.9 0.00 0.05 0.05 90 1013.2
20260903125554 24 123 4.8 12.9 0.00 0.05 0.05 90 1013.2
20260903124601 24 145 4.8 6.4 0.00 0.05 0.05 90 1012.9
20260903122743 24 153 6.4 16.1 0.00 0.05 0.05 90 1012.9
20260903121720 24 149 4.8 16.1 0.00 0.05 0.05 90 1012.9
20260903120710 24 148 6.4 12.9 0.00 0.05 0.05 90 1012.6
20260903115727 24 126 6.4 14.5 0.00 0.05 0.05 91 1012.6
20260903113604 24 127 0.0 11.3 0.00 0.05 0.05 91 1012.6
20260903104838 24 172 4.8 12.9 0.00 0.03 0.03 90 1012.3
20260903102730 25 153 6.4 16.1 0.00 0.03 0.03 89 1012.2
20260903101718 25 123 9.7 17.7 0.00 0.00 0.00 88 1012.1
20260903100736 25 107 9.7 19.3 0.00 0.00 0.00 88 1012.1
20260903095733 25 110 9.7 19.3 0.00 0.00 0.00 88 1012.1
20260903094701 25 118 6.4 14.5 0.00 0.00 0.00 87 1012.0
20260903093706 25 119 6.4 19.3 0.00 0.00 0.00 87 1012.0
20260903092700 25 110 11.3 19.3 0.00 0.00 0.00 87 1012.2
20260903091705 25 123 6.4 20.9 0.00 0.00 0.00 86 1012.1
20260903090718 25 136 11.3 22.5 0.00 0.00 0.00 86 1012.3
20260903085644 25 118 11.3 24.1 0.00 0.00 0.00 85 1012.2
20260903084615 25 138 11.3 24.1 0.00 0.00 0.00 83 1012.1
20260903083622 26 94 9.7 22.5 0.00 0.00 0.00 83 1012.1
20260903080027 26 132 9.7 20.9 0.00 0.00 0.00 82 1012.1
20260903075035 26 136 11.3 20.9 0.00 0.00 0.00 82 1012.1
20260903074002 26 102 11.3 20.9 0.00 0.00 0.00 81 1012.0
20260903072936 26 123 12.9 25.7 0.00 0.00 0.00 80 1012.1
20260903071945 26 124 14.5 29.0 0.00 0.00 0.00 80 1012.1
20260903065740 26 99 9.7 24.1 0.00 0.00 0.00 78 1012.3
20260903063606 26 92 4.8 11.3 0.00 0.00 0.00 77 1012.3
20260903061455 26 101 4.8 14.5 0.00 0.00 0.00 77 1012.4
20260903060513 26 90 1.6 12.9 0.00 0.00 0.00 77 1012.6
20260903055533 26 84 0.0 3.2 0.00 0.00 0.00 76 1012.7
20260903054536 26 85 0.0 4.8 0.00 0.00 0.00 75 1012.7
20260903052402 26 115 4.8 12.9 0.00 0.00 0.00 74 1013.1
20260903051412 27 104 6.4 16.1 0.00 0.00 0.00 74 1013.1
20260903050356 27 165 11.3 19.3 0.00 0.00 0.00 73 1013.2
20260903045324 27 126 12.9 25.7 0.00 0.00 0.00 72 1013.1
20260903044255 27 173 8.0 17.7 0.00 0.00 0.00 71 1013.1
20260903043237 27 85 9.7 17.7 0.00 0.00 0.00 69 1012.9
20260903042250 27 107 8.0 17.7 0.00 0.00 0.00 68 1012.9
20260903040034 28 113 9.7 20.9 0.00 0.00 0.00 66 1013.0
20260903033910 28 102 8.0 17.7 0.00 0.00 0.00 65 1012.9
20260903031801 29 111 6.4 20.9 0.00 0.00 0.00 63 1012.8
20260903030803 30 136 11.3 20.9 0.00 0.00 0.00 62 1012.6
20260903025820 30 105 11.3 25.7 0.00 0.00 0.00 61 1012.7
20260903024825 30 109 9.7 25.7 0.00 0.00 0.00 60 1012.6
20260903023815 30 115 9.7 25.7 0.00 0.00 0.00 59 1012.6
20260903022824 31 136 11.3 25.7 0.00 0.00 0.00 58 1012.3
20260903021752 31 137 9.7 19.3 0.00 0.00 0.00 57 1012.1
20260903020803 31 99 9.7 19.3 0.00 0.00 0.00 56 1011.8
20260903015805 31 107 8.0 19.3 0.00 0.00 0.00 56 1011.6
20260903014749 31 78 8.0 17.7 0.00 0.00 0.00 55 1011.5
20260903013753 31 69 8.0 17.7 0.00 0.00 0.00 54 1011.4
20260903012736 32 94 11.3 19.3 0.00 0.00 0.00 54 1011.3
20260903011734 32 108 11.3 19.3 0.00 0.00 0.00 53 1011.2
20260903010758 32 89 11.3 25.7 0.00 0.00 0.00 52 1011.3
20260903005807 32 107 11.3 25.7 0.00 0.00 0.00 52 1011.1
20260903004739 32 59 11.3 22.5 0.00 0.00 0.00 53 1011.0
20260903003712 33 90 11.3 22.5 0.00 0.00 0.00 52 1010.9
20260903002640 33 113 8.0 19.3 0.00 0.00 0.00 52 1010.9
20260903001656 33 94 11.3 27.4 0.00 0.00 0.00 51 1010.9
20260903000704 34 105 14.5 32.2 0.00 0.00 0.00 50 1010.9
20260902235639 34 92 17.7 32.2 0.00 0.00 0.00 49 1010.9
20260902234618 35 94 6.4 19.3 0.00 0.00 0.00 47 1010.7
20260902232529 35 95 14.5 25.7 0.00 0.00 0.00 45 1010.6
20260902230413 36 97 9.7 19.3 0.00 0.00 0.00 42 1010.6
20260902225409 36 82 8.0 19.3 0.00 0.00 0.00 43 1010.5
20260902224413 36 76 9.7 24.1 0.00 0.00 0.00 42 1010.6
20260902223413 36 63 9.7 24.1 0.00 0.00 0.00 42 1010.5
20260902222434 36 94 11.3 25.7 0.00 0.00 0.00 42 1010.6
20260902221436 36 82 8.0 25.7 0.00 0.00 0.00 43 1010.5
20260902220425 36 87 9.7 22.5 0.00 0.00 0.00 42 1010.6
20260902214308 36 124 8.0 22.5 0.00 0.00 0.00 40 1010.7
20260902213255 36 119 9.7 22.5 0.00 0.00 0.00 40 1010.8
20260902211134 36 59 4.8 20.9 0.00 0.00 0.00 41 1011.1
20260902204954 36 83 8.0 24.1 0.00 0.00 0.00 42 1011.4
20260902203941 36 101 6.4 19.3 0.00 0.00 0.00 43 1011.6
20260902202915 36 108 6.4 19.3 0.00 0.00 0.00 42 1011.8
20260902201935 36 81 4.8 19.3 0.00 0.00 0.00 43 1011.9
20260902200950 36 54 8.0 20.9 0.00 0.00 0.00 44 1012.0
20260902195947 36 80 6.4 20.9 0.00 0.00 0.00 45 1012.1
20260902194923 36 37 3.2 17.7 0.00 0.00 0.00 45 1012.3
20260902193909 36 90 4.8 17.7 0.00 0.00 0.00 44 1012.4
20260902192844 36 42 6.4 16.1 0.00 0.00 0.00 44 1012.6
20260902191900 35 77 4.8 16.1 0.00 0.00 0.00 45 1012.7
20260902190839 35 103 8.0 17.7 0.00 0.00 0.00 46 1012.8
20260902185810 35 30 6.4 17.7 0.00 0.00 0.00 47 1013.1
20260902184820 35 67 3.2 14.5 0.00 0.00 0.00 47 1013.1
20260902183747 35 107 6.4 17.7 0.00 0.00 0.00 48 1013.4
20260902182726 35 51 6.4 20.9 0.00 0.00 0.00 49 1013.6
20260902181706 34 22 8.0 20.9 0.00 0.00 0.00 49 1013.8
20260902180712 34 54 4.8 19.3 0.00 0.00 0.00 50 1013.9
20260902175708 34 41 8.0 16.1 0.00 0.00 0.00 50 1014.3
20260902174708 34 107 3.2 19.3 0.00 0.00 0.00 52 1014.4
20260902173648 34 94 4.8 19.3 0.00 0.00 0.00 51 1014.5
20260902172617 33 95 6.4 17.7 0.00 0.00 0.00 52 1014.7
20260902171550 33 138 6.4 16.1 0.00 0.00 0.00 53 1014.8
20260902170614 33 84 8.0 16.1 0.00 0.00 0.00 54 1015.1